Morelia, Mexico

12:07 PM CDT on September 26, 2017 (GMT -0500)
Gen Francisco J Mujica International

Weather History for MMMM - March, 2013

Change the Weather History Date:

Monday, March 4, 2013

  Actual Average Record
Temperature  
Mean Temperature 58 °F -  
Max Temperature 81 °F 80 °F 86 °F (1997)
Min Temperature 35 °F 50 °F 35 °F (2013)
Degree Days  
Heating Degree Days 7    
Growing Degree Days 8 (Base 50)    
Moisture  
Dew Point 19 °F    
Average Humidity 28    
Maximum Humidity 64    
Minimum Humidity 4    
Precipitation  
Precipitation 0.00 in 0.01 in - ()
Sea Level Pressure  
Sea Level Pressure 30.14 in    
Wind  
Wind Speed 1 mph ()    
Max Wind Speed 12 mph    
Max Gust Speed -    
Visibility 6.7 miles    
Events      
Averages and records for this station are not official NWS values.
T = Trace of Precipitation, MM = Missing Value Source: Averaged Metar Reports

Daily Weather History Graph

Daily Weather History Graph

Search for Another Location

Airport or City:

Trip Planner

Search our weather history database for the weather conditions in past years. The results will help you decide how hot, cold, wet, or windy it might be!

Date:

Astronomy

Mar. 04, 2013 Rise Set
Actual Time 7:01 AM CST 6:50 PM CST
Civil Twilight 6:39 AM CST 7:12 PM CST
Nautical Twilight 6:13 AM CST 7:38 PM CST
Astronomical Twilight 5:48 AM CST 8:03 PM CST
Moon 12:41 AM CST (3/4) 12:06 PM CST (3/4)
Length of Visible Light 12h 33m
Length of Day
11h 49m
Waning Gibbous, 52% of the Moon is Illuminated
Mar 4
Waning Gibbous
Mar 4
Last Quarter
Mar 11
New
Mar 19
First Quarter
Mar 27
Full

Hourly Weather History & Observations

Time (CST) Temp. Dew Point Humidity Pressure Visibility Wind Dir Wind Speed Gust Speed Precip Events Conditions
12:40 AM 37.4 °F 21.2 °F 52% 30.28 in 7.0 mi Calm Calm - N/A   Clear
1:40 AM 37.4 °F 15.8 °F 41% 30.28 in 7.0 mi Calm Calm - N/A   Clear
3:40 AM 39.2 °F 17.6 °F 42% 30.27 in 7.0 mi Calm Calm - N/A   Clear
4:40 AM 35.6 °F 19.4 °F 52% 30.27 in 7.0 mi Calm Calm - N/A   Clear
5:44 AM 32.0 °F 17.6 °F 55% 30.06 in 7.0 mi Calm Calm - N/A   Clear
5:55 AM 38 °F 26 °F 50% 30.12 in 5 mi WSW 4.5 mph - -  
6:43 AM 28.4 °F 17.6 °F 64% 30.29 in 7.0 mi Calm Calm - N/A   Clear
7:53 AM 33.8 °F 19.4 °F 56% 30.31 in 7.0 mi Calm Calm - N/A   Clear
8:20 AM 41.0 °F 19.4 °F 42% 30.32 in 7.0 mi Calm Calm - N/A   Clear
8:45 AM 43 °F 25 °F 36% 30.22 in 6 mi West 2.2 mph - -  
8:48 AM 44.6 °F 19.4 °F 37% 30.16 in 7.0 mi Calm Calm - N/A   Clear
9:16 AM 51.8 °F 21.2 °F 30% 30.33 in 7.0 mi Calm Calm - N/A   Clear
9:48 AM 55.4 °F 19.4 °F 25% 30.33 in 7.0 mi Calm Calm - N/A   Clear
10:20 AM 60.8 °F 17.6 °F 19% 30.32 in 7.0 mi Calm Calm - N/A   Clear
10:45 AM 62.6 °F 17.6 °F 18% 30.31 in 7.0 mi SSE 3.5 mph - N/A   Clear
11:45 AM 74 °F 24 °F 7% 30.14 in 7 mi South 4.5 mph - -  
11:45 AM 69.8 °F 19.4 °F 15% 30.03 in 7.0 mi Calm Calm - N/A   Clear
12:46 PM 73.4 °F 5.0 °F 7% 30.24 in 7.0 mi South 4.6 mph - N/A   Clear
1:45 PM 75.2 °F 6.8 °F 7% 30.20 in 7.0 mi NW 6.9 mph - N/A   Clear
2:49 PM 75.2 °F 5.0 °F 7% 29.93 in 7.0 mi NW 6.9 mph - N/A   Clear
2:50 PM 77 °F 11 °F 4% 29.92 in 7 mi North 2.2 mph - -  
3:46 PM 77.0 °F 5.0 °F 6% 30.14 in 7.0 mi NW 11.5 mph - N/A   Clear
4:59 PM 75.2 °F 60.8 °F 61% 30.14 in 7.0 mi Calm Calm - N/A   Clear
5:45 PM 75.2 °F 5.0 °F 7% 29.90 in 7.0 mi NE 3.5 mph - N/A   Clear
5:50 PM 73 °F 25 °F 8% 29.80 in 7 mi North 2.2 mph - -  
6:45 PM 68.0 °F 10.4 °F 11% 30.16 in 7.0 mi NNW 3.5 mph - N/A   Clear
7:45 PM 64.4 °F 14.0 °F 14% 30.18 in 7.0 mi Calm Calm - N/A   Clear
8:45 PM 59.0 °F 15.8 °F 19% 29.96 in 7.0 mi Calm Calm - N/A   Clear
8:55 PM 62 °F 23 °F 12% 29.77 in 6 mi ESE 2.2 mph - -  
9:44 PM 55.4 °F 17.6 °F 23% 30.23 in 6.0 mi Calm Calm - N/A   Clear
10:41 PM 55.4 °F 17.6 °F 23% 30.24 in 6.0 mi Calm Calm - N/A   Clear
11:46 PM 48.2 °F 21.2 °F 34% 29.96 in 6.0 mi Calm Calm - N/A   Clear
11:55 PM 54 °F 36 °F 40% 29.87 in 5 mi North 2.2 mph - -